CW3782 Weather Reports


time (UTC)temp
C
wind
direction
speed
KPH
gust
KPH
rain 1hr
cm
rain 24hr
cm
rain mn
cm
humidity
%
barometer
mb
20260505140259 19 120 1.6 4.8 0.00 0.00 0.00 71 1016.9
20260505130223 17 358 3.2 6.4 0.00 0.00 0.00 78 1016.9
20260505130205 16 63 1.6 4.8 0.00 0.00 0.00 76 1015.2
20260505124713 16 312 1.6 4.8 0.00 0.00 0.00 79 1016.9
20260505124209 16 60 0.0 4.8 0.00 0.00 0.00 80 1017.1
20260505124205 15 316 0.0 3.2 0.00 0.00 0.00 82 1015.2
20260505123705 15 48 1.6 3.2 0.00 0.00 0.00 81 1016.9
20260505123205 14 120 0.0 3.2 0.00 0.00 0.00 84 1015.2
20260505123203 15 242 0.0 8.0 0.00 0.00 0.00 82 1017.0
20260505122659 15 144 3.2 4.8 0.00 0.00 0.00 84 1017.1
20260505122156 14 55 0.0 6.4 0.00 0.00 0.00 85 1017.0
20260505121704 13 145 0.0 1.6 0.00 0.00 0.00 86 1015.4
20260505121653 13 113 1.6 3.2 0.00 0.00 0.00 86 1017.0
20260505121205 12 46 0.0 1.6 0.00 0.00 0.00 87 1015.3
20260505121149 13 137 3.2 4.8 0.00 0.00 0.00 89 1016.9
20260505120645 12 98 0.0 3.2 0.00 0.00 0.00 91 1017.1
20260505120141 12 63 0.0 4.8 0.00 0.00 0.00 92 1017.0
20260505115635 12 119 0.0 3.2 0.00 0.00 0.00 93 1016.9
20260505115133 11 44 0.0 1.6 0.00 0.00 0.00 93 1016.8
20260505114705 11 255 0.0 1.6 0.00 0.00 0.00 87 1015.2
20260505114624 11 84 0.0 3.2 0.00 0.00 0.00 93 1016.7
20260505114205 11 140 0.0 3.2 0.00 0.00 0.00 86 1015.2
20260505114121 11 101 0.0 1.6 0.00 0.00 0.00 93 1016.8
20260505113617 11 53 0.0 1.6 0.00 0.00 0.00 93 1016.8
20260505113114 11 60 1.6 3.2 0.00 0.00 0.00 93 1016.8
20260505112610 11 37 0.0 3.2 0.00 0.00 0.00 93 1016.8
20260505112204 11 187 0.0 1.6 0.00 0.00 0.00 84 1015.0
20260505112108 11 31 0.0 1.6 0.00 0.00 0.00 93 1016.5
20260505111704 11 187 0.0 0.0 0.00 0.00 0.00 83 1014.9
20260505111602 11 60 0.0 1.6 0.00 0.00 0.00 93 1016.6
20260505111204 11 187 0.0 0.0 0.00 0.00 0.00 82 1014.8
20260505111058 10 104 0.0 1.6 0.00 0.00 0.00 93 1016.5
20260505110705 11 187 0.0 0.0 0.00 0.00 0.00 81 1014.7
20260505110555 10 89 0.0 1.6 0.00 0.00 0.00 93 1016.5
20260505110204 11 187 0.0 0.0 0.00 0.00 0.00 81 1014.7
20260505102205 11 187 0.0 0.0 0.00 0.00 0.00 80 1014.2
20260505102027 11 25 0.0 1.6 0.00 0.00 0.00 91 1016.0
20260505101526 11 12 0.0 1.6 0.00 0.00 0.00 91 1016.0
20260505101205 11 187 0.0 0.0 0.00 0.00 0.00 79 1014.2
20260505101022 11 7 0.0 3.2 0.00 0.00 0.00 90 1015.8
20260505100704 11 187 0.0 1.6 0.00 0.00 0.00 79 1014.2
20260505100519 11 64 0.0 3.2 0.00 0.00 0.00 89 1015.8
20260505100016 11 99 0.0 3.2 0.00 0.00 0.00 89 1015.9
20260505095705 11 187 0.0 0.0 0.00 0.00 0.00 79 1014.1
20260505095512 11 22 0.0 1.6 0.00 0.00 0.00 89 1015.6
20260505095204 11 187 0.0 0.0 0.00 0.00 0.00 79 1014.1
20260505095008 11 87 0.0 3.2 0.00 0.00 0.00 89 1015.8
20260505094704 12 187 0.0 1.6 0.00 0.00 0.00 79 1014.1
20260505094505 11 111 1.6 3.2 0.00 0.00 0.00 88 1015.8
20260505094204 12 187 0.0 1.6 0.00 0.00 0.00 78 1014.1
20260505094001 11 44 0.0 3.2 0.00 0.00 0.00 88 1015.6
20260505093458 11 89 0.0 3.2 0.00 0.00 0.00 88 1015.6
20260505092955 11 142 0.0 3.2 0.00 0.00 0.00 88 1015.8
20260505092705 12 187 0.0 0.0 0.00 0.00 0.00 77 1014.1
20260505092452 11 71 1.6 3.2 0.00 0.00 0.00 88 1015.7
20260505091950 11 94 0.0 1.6 0.00 0.00 0.00 87 1015.5
20260505091447 11 78 1.6 3.2 0.00 0.00 0.00 87 1015.7
20260505091204 12 187 0.0 0.0 0.00 0.00 0.00 76 1014.0
20260505090945 12 117 0.0 3.2 0.00 0.00 0.00 86 1015.7
20260505090443 12 67 0.0 1.6 0.00 0.00 0.00 86 1015.5
20260505090204 12 187 0.0 0.0 0.00 0.00 0.00 75 1013.9
20260505085940 12 50 0.0 0.0 0.00 0.00 0.00 85 1015.7
20260505085704 12 187 0.0 0.0 0.00 0.00 0.00 75 1013.9
20260505085438 12 61 0.0 3.2 0.00 0.00 0.00 85 1015.5
20260505085204 12 187 0.0 0.0 0.00 0.00 0.00 75 1013.7
20260505084936 12 118 0.0 1.6 0.00 0.00 0.00 85 1015.4
20260505084704 13 187 0.0 0.0 0.00 0.00 0.00 75 1013.7
20260505084434 12 117 0.0 3.2 0.00 0.00 0.00 84 1015.5
20260505084204 13 187 0.0 0.0 0.00 0.00 0.00 75 1013.7
20260505083932 12 89 0.0 1.6 0.00 0.00 0.00 84 1015.5
20260505083429 12 116 0.0 3.2 0.00 0.00 0.00 84 1015.5
20260505083205 13 187 0.0 0.0 0.00 0.00 0.00 74 1013.7
20260505082925 12 75 0.0 0.0 0.00 0.00 0.00 83 1015.6
20260505082421 12 93 0.0 3.2 0.00 0.00 0.00 83 1015.6
20260505081918 12 86 1.6 3.2 0.00 0.00 0.00 82 1015.4
20260505081705 13 187 0.0 0.0 0.00 0.00 0.00 73 1013.7
20260505081415 12 88 1.6 3.2 0.00 0.00 0.00 82 1015.3
20260505081204 13 187 0.0 0.0 0.00 0.00 0.00 73 1013.7
20260505080911 13 117 0.0 1.6 0.00 0.00 0.00 82 1015.3
20260505080408 13 62 1.6 3.2 0.00 0.00 0.00 81 1015.3
20260505075903 13 107 0.0 3.2 0.00 0.00 0.00 81 1015.2
20260505075704 13 187 0.0 0.0 0.00 0.00 0.00 72 1013.6
20260505075400 13 154 0.0 3.2 0.00 0.00 0.00 81 1015.3
20260505075204 14 187 0.0 0.0 0.00 0.00 0.00 72 1013.6
20260505074858 13 73 1.6 3.2 0.00 0.00 0.00 81 1015.2
20260505074704 14 187 0.0 0.0 0.00 0.00 0.00 71 1013.6
20260505074354 13 39 0.0 3.2 0.00 0.00 0.00 80 1015.3
20260505073852 13 230 0.0 1.6 0.00 0.00 0.00 80 1015.1
20260505073704 14 187 0.0 1.6 0.00 0.00 0.00 71 1013.5
20260505073349 13 145 0.0 3.2 0.00 0.00 0.00 80 1015.1
20260505073204 14 187 0.0 0.0 0.00 0.00 0.00 70 1013.5
20260505072846 13 89 0.0 3.2 0.00 0.00 0.00 79 1015.1
20260505072342 13 140 1.6 3.2 0.00 0.00 0.00 79 1015.0
20260505071839 14 66 0.0 3.2 0.00 0.00 0.00 78 1015.3
20260505071704 15 187 0.0 0.0 0.00 0.00 0.00 69 1013.5
20260505071335 14 89 0.0 1.6 0.00 0.00 0.00 77 1015.1
20260505070833 14 124 0.0 1.6 0.00 0.00 0.00 76 1015.0
20260505070704 15 187 0.0 0.0 0.00 0.00 0.00 69 1013.4
20260505070330 14 129 0.0 1.6 0.00 0.00 0.00 76 1015.2
20260505065825 15 126 0.0 3.2 0.00 0.00 0.00 76 1015.0
20260505065322 15 135 0.0 1.6 0.00 0.00 0.00 75 1015.1
20260505064819 15 181 1.6 3.2 0.00 0.00 0.00 75 1015.0
20260505064316 15 70 0.0 1.6 0.00 0.00 0.00 74 1015.3
20260505063814 15 57 0.0 1.6 0.00 0.00 0.00 74 1015.1
20260505063310 15 55 0.0 3.2 0.00 0.00 0.00 74 1015.1
20260505063204 15 156 0.0 1.6 0.00 0.00 0.00 67 1013.3
20260505062806 15 352 0.0 3.2 0.00 0.00 0.00 73 1015.1
20260505062304 15 143 0.0 3.2 0.00 0.00 0.00 71 1014.9
20260505062205 16 198 1.6 3.2 0.00 0.00 0.00 67 1013.3
20260505061801 15 65 1.6 3.2 0.00 0.00 0.00 72 1015.0
20260505061259 16 42 0.0 1.6 0.00 0.00 0.00 72 1014.9
20260505060756 16 135 0.0 1.6 0.00 0.00 0.00 70 1015.1
20260505060253 16 142 0.0 1.6 0.00 0.00 0.00 70 1014.9
20260505055748 16 66 0.0 1.6 0.00 0.00 0.00 70 1015.2
20260505055704 16 127 1.6 3.2 0.00 0.00 0.00 66 1013.4
20260505055245 16 89 0.0 3.2 0.00 0.00 0.00 69 1015.1
20260505054742 16 104 0.0 3.2 0.00 0.00 0.00 69 1015.1
20260505054239 16 140 0.0 8.0 0.00 0.00 0.00 68 1015.2
20260505053738 16 132 3.2 6.4 0.00 0.00 0.00 68 1015.2
20260505053704 16 155 1.6 4.8 0.00 0.00 0.00 66 1013.5
20260505053234 16 155 0.0 4.8 0.00 0.00 0.00 68 1015.2
20260505053204 16 175 1.6 3.2 0.00 0.00 0.00 65 1013.6
20260505052731 16 148 3.2 6.4 0.00 0.00 0.00 68 1015.1
20260505052228 16 182 0.0 3.2 0.00 0.00 0.00 69 1015.1
20260505051725 16 126 0.0 4.8 0.00 0.00 0.00 68 1015.3
20260505051704 16 186 1.6 4.8 0.00 0.00 0.00 65 1013.7
20260505051223 16 132 0.0 4.8 0.00 0.00 0.00 68 1015.4
20260505051204 16 162 1.6 8.0 0.00 0.00 0.00 65 1013.7
20260505050721 16 84 1.6 3.2 0.00 0.00 0.00 68 1015.5
20260505050219 16 103 0.0 3.2 0.00 0.00 0.00 68 1015.5
20260505050204 17 18 1.6 9.7 0.00 0.00 0.00 65 1013.7
20260505041705 17 137 3.2 4.8 0.00 0.00 0.00 63 1013.7
20260505041648 17 119 0.0 3.2 0.00 0.00 0.00 66 1015.1
20260505041204 17 105 1.6 4.8 0.00 0.00 0.00 63 1013.7
20260505041146 17 127 1.6 6.4 0.00 0.00 0.00 66 1015.2
20260505040704 17 181 1.6 4.8 0.00 0.00 0.00 63 1013.7
20260505040643 17 149 0.0 3.2 0.00 0.00 0.00 66 1015.3
20260505040140 17 176 0.0 4.8 0.00 0.00 0.00 66 1015.1
20260505035636 17 324 0.0 4.8 0.00 0.00 0.00 65 1015.4
20260505035204 17 151 1.6 9.7 0.00 0.00 0.00 62 1013.7
20260505035132 17 150 3.2 3.2 0.00 0.00 0.00 65 1015.3
20260505034629 17 102 0.0 8.0 0.00 0.00 0.00 65 1015.2
20260505034126 17 116 0.0 6.4 0.00 0.00 0.00 65 1015.2
20260505033705 18 50 1.6 4.8 0.00 0.00 0.00 61 1013.7
20260505033623 17 181 1.6 3.2 0.00 0.00 0.00 64 1015.2
20260505033121 18 69 0.0 4.8 0.00 0.00 0.00 64 1015.0
20260505032706 18 114 1.6 9.7 0.00 0.00 0.00 61 1013.6
20260505032619 18 112 3.2 4.8 0.00 0.00 0.00 64 1015.3
20260505032115 18 120 1.6 4.8 0.00 0.00 0.00 65 1015.2
20260505031613 18 106 0.0 1.6 0.00 0.00 0.00 65 1015.1
20260505031206 18 115 1.6 4.8 0.00 0.00 0.00 61 1013.7
20260505031108 18 124 0.0 4.8 0.00 0.00 0.00 64 1015.3
20260505030706 18 114 1.6 8.0 0.00 0.00 0.00 60 1013.7
20260505030606 18 84 1.6 3.2 0.00 0.00 0.00 64 1015.2
20260505025557 18 127 0.0 4.8 0.00 0.00 0.00 63 1015.2
20260505025057 18 115 1.6 4.8 0.00 0.00 0.00 63 1015.2
20260505024705 19 170 1.6 8.0 0.00 0.00 0.00 59 1013.7
20260505024553 18 155 1.6 6.4 0.00 0.00 0.00 62 1015.1
20260505024050 18 146 3.2 4.8 0.00 0.00 0.00 62 1015.3
20260505023547 19 266 0.0 4.8 0.00 0.00 0.00 62 1015.0
20260505023205 19 127 3.2 11.3 0.00 0.00 0.00 59 1013.7
20260505023045 19 119 0.0 4.8 0.00 0.00 0.00 62 1015.2
20260505022542 19 153 1.6 6.4 0.00 0.00 0.00 62 1015.0
20260505022039 19 150 3.2 9.7 0.00 0.00 0.00 62 1014.9
20260505021705 20 142 1.6 4.8 0.00 0.00 0.00 58 1013.6
20260505021536 19 147 3.2 4.8 0.00 0.00 0.00 62 1015.1
20260505021032 19 130 3.2 6.4 0.00 0.00 0.00 61 1015.0
20260505020705 20 168 1.6 12.9 0.00 0.00 0.00 58 1013.6
20260505020526 20 96 1.6 4.8 0.00 0.00 0.00 61 1014.9
20260505020024 20 108 1.6 8.0 0.00 0.00 0.00 60 1014.8
20260505015521 20 42 1.6 6.4 0.00 0.00 0.00 59 1014.9
20260505015205 20 191 1.6 4.8 0.00 0.00 0.00 56 1013.4
20260505015018 20 121 1.6 4.8 0.00 0.00 0.00 58 1014.8
20260505014515 20 107 1.6 4.8 0.00 0.00 0.00 57 1014.7
20260505014205 20 115 3.2 8.0 0.00 0.00 0.00 54 1013.2
20260505014012 20 117 0.0 4.8 0.00 0.00 0.00 56 1014.8
20260505013706 20 171 3.2 8.0 0.00 0.00 0.00 53 1013.2
20260505013509 20 148 0.0 8.0 0.00 0.00 0.00 54 1014.5
20260505013205 20 90 1.6 8.0 0.00 0.00 0.00 52 1013.2
20260505013006 20 123 3.2 9.7 0.00 0.00 0.00 52 1014.4
20260505012705 20 116 3.2 9.7 0.00 0.00 0.00 50 1013.1
20260505012505 20 89 0.0 4.8 0.00 0.00 0.00 49 1014.4
20260505012001 20 138 0.0 3.2 0.00 0.00 0.00 47 1014.4
20260505011456 20 164 0.0 4.8 0.00 0.00 0.00 46 1014.3
20260505011205 21 170 1.6 3.2 0.00 0.00 0.00 44 1012.7
20260505010954 21 139 0.0 3.2 0.00 0.00 0.00 45 1014.1
20260505010705 21 150 1.6 4.8 0.00 0.00 0.00 44 1012.7
20260505010449 21 136 3.2 3.2 0.00 0.00 0.00 45 1014.3
20260505005946 21 114 1.6 1.6 0.00 0.00 0.00 45 1014.1
20260505005705 21 151 1.6 4.8 0.00 0.00 0.00 43 1012.6
20260505005442 21 129 0.0 3.2 0.00 0.00 0.00 44 1013.9
20260505004940 21 129 0.0 3.2 0.00 0.00 0.00 44 1013.8
20260505004437 21 132 0.0 3.2 0.00 0.00 0.00 44 1013.8
20260505003934 21 155 1.6 1.6 0.00 0.00 0.00 44 1013.8
20260505003431 21 169 1.6 3.2 0.00 0.00 0.00 44 1013.6
20260505003205 22 161 1.6 3.2 0.00 0.00 0.00 42 1012.2
20260505002927 21 142 0.0 3.2 0.00 0.00 0.00 45 1013.7
20260505002423 21 129 0.0 1.6 0.00 0.00 0.00 44 1013.6
20260505002206 22 186 1.6 3.2 0.00 0.00 0.00 40 1012.2
20260505001922 22 150 0.0 3.2 0.00 0.00 0.00 43 1013.6
20260505001705 22 148 1.6 3.2 0.00 0.00 0.00 39 1012.2
20260505001419 22 147 0.0 4.8 0.00 0.00 0.00 42 1013.6
20260505000916 22 154 0.0 3.2 0.00 0.00 0.00 41 1013.6
20260505000414 22 150 0.0 3.2 0.00 0.00 0.00 41 1013.6
20260505000205 23 165 0.0 3.2 0.00 0.00 0.00 38 1012.2
20260504235910 22 114 1.6 1.6 0.00 0.00 0.00 41 1013.6
20260504235408 22 160 0.0 1.6 0.00 0.00 0.00 40 1013.5
20260504234904 23 170 0.0 3.2 0.00 0.00 0.00 40 1013.6
20260504234402 23 256 0.0 3.2 0.00 0.00 0.00 39 1013.3
20260504234206 23 64 1.6 4.8 0.00 0.00 0.00 37 1011.9
20260504233858 23 205 0.0 3.2 0.00 0.00 0.00 39 1013.3
20260504233354 23 135 0.0 3.2 0.00 0.00 0.00 38 1013.0
20260504232850 23 135 0.0 3.2 0.00 0.00 0.00 38 1013.0
20260504232348 23 230 0.0 4.8 0.00 0.00 0.00 37 1013.3
20260504231844 23 172 0.0 3.2 0.00 0.00 0.00 37 1013.0
20260504231705 25 150 1.6 8.0 0.00 0.00 0.00 35 1011.7
20260504231341 24 176 0.0 1.6 0.00 0.00 0.00 37 1012.8
20260504230837 24 92 1.6 4.8 0.00 0.00 0.00 37 1012.9
20260504230705 25 178 0.0 4.8 0.00 0.00 0.00 35 1011.7
20260504230335 24 322 0.0 3.2 0.00 0.00 0.00 38 1013.2
20260504225833 24 269 3.2 4.8 0.00 0.00 0.00 36 1012.9
20260504225329 25 154 4.8 6.4 0.00 0.00 0.00 36 1012.7
20260504224827 25 155 0.0 14.5 0.00 0.00 0.00 35 1012.8
20260504224324 25 183 3.2 4.8 0.00 0.00 0.00 34 1012.7
20260504223821 25 306 1.6 8.0 0.00 0.00 0.00 34 1012.8
20260504223705 26 29 1.6 8.0 0.00 0.00 0.00 31 1011.7
20260504223316 25 156 0.0 3.2 0.00 0.00 0.00 34 1012.9
20260504223205 26 100 1.6 8.0 0.00 0.00 0.00 31 1011.6
20260504222813 25 299 0.0 3.2 0.00 0.00 0.00 32 1012.9
20260504222705 26 170 1.6 4.8 0.00 0.00 0.00 32 1011.6
20260504222310 25 257 1.6 9.7 0.00 0.00 0.00 33 1012.7
20260504222205 26 6 3.2 9.7 0.00 0.00 0.00 30 1011.6
20260504221808 25 113 0.0 4.8 0.00 0.00 0.00 33 1012.9
20260504221304 25 230 0.0 1.6 0.00 0.00 0.00 33 1012.9
20260504220801 25 198 0.0 4.8 0.00 0.00 0.00 32 1012.8
20260504220258 25 141 0.0 3.2 0.00 0.00 0.00 32 1012.8
20260504215756 25 261 1.6 4.8 0.00 0.00 0.00 33 1012.9
20260504215252 25 157 3.2 6.4 0.00 0.00 0.00 31 1013.0
20260504215205 28 29 1.6 8.0 0.00 0.00 0.00 29 1011.5
20260504214748 25 327 0.0 3.2 0.00 0.00 0.00 33 1012.9
20260504214704 28 46 1.6 4.8 0.00 0.00 0.00 26 1011.6
20260504214244 25 269 0.0 4.8 0.00 0.00 0.00 31 1012.9
20260504214205 28 353 1.6 9.7 0.00 0.00 0.00 27 1011.6
20260504213741 25 312 0.0 3.2 0.00 0.00 0.00 33 1012.9
20260504213237 25 304 0.0 6.4 0.00 0.00 0.00 33 1012.9
20260504212735 26 334 3.2 4.8 0.00 0.00 0.00 34 1012.8
20260504212705 28 16 3.2 9.7 0.00 0.00 0.00 28 1011.6
20260504212231 26 250 3.2 6.4 0.00 0.00 0.00 31 1013.0
20260504212205 28 73 1.6 4.8 0.00 0.00 0.00 26 1011.6
20260504211729 26 279 4.8 4.8 0.00 0.00 0.00 30 1013.1
20260504211705 28 112 1.6 3.2 0.00 0.00 0.00 26 1011.7
20260504211225 26 306 3.2 4.8 0.00 0.00 0.00 31 1012.9
20260504211205 28 37 1.6 4.8 0.00 0.00 0.00 28 1011.6
20260504210723 26 284 1.6 11.3 0.00 0.00 0.00 30 1013.0
20260504210220 26 320 0.0 3.2 0.00 0.00 0.00 30 1013.0
20260504205717 26 177 1.6 6.4 0.00 0.00 0.00 29 1013.0
20260504205704 28 109 1.6 4.8 0.00 0.00 0.00 25 1011.7
20260504205214 26 284 0.0 4.8 0.00 0.00 0.00 29 1012.8
20260504204712 26 139 0.0 8.0 0.00 0.00 0.00 28 1013.2
20260504204705 28 68 1.6 3.2 0.00 0.00 0.00 28 1011.8
20260504204210 26 147 4.8 6.4 0.00 0.00 0.00 29 1013.1
20260504203709 26 89 0.0 9.7 0.00 0.00 0.00 28 1013.3
20260504203207 27 156 1.6 4.8 0.00 0.00 0.00 29 1013.1
20260504202706 26 185 3.2 11.3 0.00 0.00 0.00 27 1013.1
20260504202205 28 31 1.6 4.8 0.00 0.00 0.00 27 1011.9
20260504201701 27 140 3.2 8.0 0.00 0.00 0.00 28 1013.6
20260504201158 26 279 3.2 4.8 0.00 0.00 0.00 28 1013.6
20260504200705 28 67 1.6 4.8 0.00 0.00 0.00 27 1012.2
20260504200655 27 298 4.8 9.7 0.00 0.00 0.00 29 1013.6
20260504200152 27 145 0.0 8.0 0.00 0.00 0.00 28 1013.8
20260504195648 27 312 3.2 3.2 0.00 0.00 0.00 30 1013.5
20260504195144 27 235 3.2 6.4 0.00 0.00 0.00 28 1013.7
20260504194705 28 145 1.6 8.0 0.00 0.00 0.00 27 1012.2
20260504194641 27 288 4.8 6.4 0.00 0.00 0.00 31 1013.7
20260504194205 28 59 1.6 8.0 0.00 0.00 0.00 28 1012.2
20260504194137 27 180 0.0 6.4 0.00 0.00 0.00 29 1013.6
20260504193633 26 158 3.2 8.0 0.00 0.00 0.00 30 1013.6
20260504193131 27 182 1.6 6.4 0.00 0.00 0.00 29 1013.6
20260504192705 28 134 1.6 4.8 0.00 0.00 0.00 27 1012.3
20260504192629 27 269 0.0 9.7 0.00 0.00 0.00 30 1013.6
20260504192205 28 142 1.6 4.8 0.00 0.00 0.00 27 1012.3
20260504192127 26 300 3.2 6.4 0.00 0.00 0.00 31 1013.7
20260504191625 27 160 6.4 8.0 0.00 0.00 0.00 28 1013.9
20260504191205 28 78 3.2 11.3 0.00 0.00 0.00 27 1012.6
20260504191121 26 89 0.0 3.2 0.00 0.00 0.00 31 1013.9
20260504190617 26 175 3.2 8.0 0.00 0.00 0.00 30 1013.9
20260504190114 26 185 4.8 6.4 0.00 0.00 0.00 31 1014.0
20260504185610 26 283 1.6 6.4 0.00 0.00 0.00 31 1014.1
20260504185204 28 44 1.6 8.0 0.00 0.00 0.00 28 1012.8
20260504185107 25 312 4.8 8.0 0.00 0.00 0.00 32 1014.3
20260504184705 28 223 1.6 9.7 0.00 0.00 0.00 28 1012.8
20260504184603 26 269 0.0 6.4 0.00 0.00 0.00 33 1014.3
20260504184205 27 1 3.2 8.0 0.00 0.00 0.00 30 1012.8
20260504184058 26 230 0.0 8.0 0.00 0.00 0.00 30 1014.3
20260504183555 25 295 0.0 8.0 0.00 0.00 0.00 32 1014.3
20260504183205 27 206 1.6 3.2 0.00 0.00 0.00 30 1012.8
20260504183053 25 167 1.6 12.9 0.00 0.00 0.00 31 1014.3
20260504182705 27 49 1.6 4.8 0.00 0.00 0.00 32 1012.9
20260504182550 26 316 3.2 4.8 0.00 0.00 0.00 30 1014.3
20260504182205 27 30 1.6 4.8 0.00 0.00 0.00 31 1012.9
20260504182048 25 257 4.8 11.3 0.00 0.00 0.00 32 1014.3
20260504181545 25 275 3.2 4.8 0.00 0.00 0.00 31 1014.4
20260504181043 24 302 0.0 6.4 0.00 0.00 0.00 36 1014.7
20260504180705 26 54 3.2 4.8 0.00 0.00 0.00 28 1013.0
20260504180541 25 302 4.8 11.3 0.00 0.00 0.00 34 1014.5
20260504180205 26 173 3.2 8.0 0.00 0.00 0.00 29 1013.1
20260504180040 25 275 3.2 6.4 0.00 0.00 0.00 35 1014.4
20260504175705 26 55 3.2 11.3 0.00 0.00 0.00 30 1013.1
20260504175537 25 306 3.2 6.4 0.00 0.00 0.00 33 1014.5
20260504175034 25 279 0.0 4.8 0.00 0.00 0.00 34 1014.5
20260504174532 25 87 0.0 6.4 0.00 0.00 0.00 34 1014.6
20260504174205 26 37 1.6 8.0 0.00 0.00 0.00 36 1013.3
20260504174028 23 279 3.2 8.0 0.00 0.00 0.00 35 1014.9
20260504173525 23 359 3.2 9.7 0.00 0.00 0.00 36 1014.9
20260504173204 26 26 3.2 8.0 0.00 0.00 0.00 31 1013.4
20260504173022 23 211 3.2 8.0 0.00 0.00 0.00 35 1015.0
20260504172518 23 318 4.8 8.0 0.00 0.00 0.00 39 1015.1
20260504172205 25 81 3.2 9.7 0.00 0.00 0.00 33 1013.8
20260504172015 24 318 1.6 4.8 0.00 0.00 0.00 38 1015.0
20260504171512 23 272 4.8 8.0 0.00 0.00 0.00 36 1015.3
20260504171009 23 322 3.2 8.0 0.00 0.00 0.00 41 1015.3
20260504170705 25 80 1.6 4.8 0.00 0.00 0.00 34 1013.9
20260504170505 23 269 0.0 4.8 0.00 0.00 0.00 40 1015.1
20260504170205 25 17 1.6 11.3 0.00 0.00 0.00 35 1013.9
20260504160425 22 253 6.4 9.7 0.00 0.00 0.00 44 1015.9
20260504160205 23 316 3.2 8.0 0.00 0.00 0.00 41 1014.6
20260504150849 18 343 3.2 4.8 0.00 0.00 0.00 57 1016.2
20260504150705 21 92 1.6 8.0 0.00 0.00 0.00 48 1014.9
20260504150345 19 341 3.2 3.2 0.00 0.00 0.00 58 1016.3